Location: Unspecified
(0.0000°N, 0.0000°E)
Time: 15:08:25
(UTC+00:00)

OBJECT E - Visible Passes

Search period start: 16 December 2025 00:00
Search period end: 26 December 2025 00:00
Orbit: 481 x 501 km, 97.5° (Epoch: 15 December)

Date Brightness Start Highest point End Pass type
(mag) Time Alt. Az. Time Alt. Az. Time Alt. Az.
18 Dec ? 05:21:56 10° ENE 05:24:15 16° ESE 05:26:35 10° SE visible
18 Dec ? 18:43:53 10° SSW 18:46:30 19° WSW 18:49:07 10° NW visible
19 Dec ? 18:20:44 10° S 18:24:15 43° WSW 18:27:43 10° NNW visible
22 Dec ? 05:25:48 10° NE 05:28:24 19° ESE 05:31:01 10° SSE visible
22 Dec ? 18:48:19 10° SW 18:50:39 16° WSW 18:52:58 10° WNW visible
23 Dec ? 18:24:57 10° S 18:28:21 36° WSW 18:31:43 10° NNW visible
